Location: Dobra
(49.7166°N, 20.2564°E)
Time: 16:42:55
(UTC+01:00)

ISS - Visible Passes

Search period start: 20 November 2017 00:00
Search period end: 30 November 2017 00:00
Orbit: 402 x 407 km, 51.6° (Epoch: 21 November)

Date Brightness Start Highest point End Pass type
(mag) Time Alt. Az. Time Alt. Az. Time Alt. Az.
27 Nov -1.2 17:34:39 10° SSE 17:34:58 11° SSE 17:34:58 11° SSE visible
28 Nov -1.4 18:16:29 10° SW 18:17:35 18° SSW 18:17:35 18° SSW visible
29 Nov -2.3 17:24:37 10° SSW 17:27:14 22° SE 17:27:28 22° SE visible
29 Nov -0.3 19:00:07 10° WSW 19:00:07 10° WSW 19:00:07 10° WSW visible
